EW2875 Weather Reports


Display with metric or nautical units.
time (UTC)temp
F
wind
direction
speed
MPH
gust
MPH
rain 1hr
in
rain 24hr
in
rain mn
in
humidity
%
barometer
mb
20260503200025 43 0 0.0 0.0 0.00 0.00 0.00 95 1012.0
20260503194525 42 0 0.0 0.0 0.00 0.00 0.00 93 1011.9
20260503193004 42 0 0.0 0.0 0.00 0.00 0.00 93 1011.8
20260503191504 42 0 0.0 0.0 0.00 0.00 0.00 92 1011.7
20260503190004 43 0 0.0 0.0 0.00 0.00 0.00 89 1011.6
20260503184504 45 154 0.0 1.0 0.00 0.00 0.00 88 1011.6
20260503183025 46 154 2.0 3.0 0.00 0.00 0.00 88 1011.6
20260503181505 47 154 1.0 2.0 0.00 0.00 0.00 88 1011.6
20260503180005 47 154 1.0 3.0 0.00 0.00 0.00 88 1011.6
20260503174525 46 145 2.0 3.0 0.00 0.00 0.00 88 1011.6
20260503173004 46 125 3.0 5.0 0.00 0.00 0.00 88 1011.5
20260503171504 46 106 4.0 7.0 0.00 0.00 0.00 87 1011.6
20260503081504 44 93 6.0 10.0 0.00 0.00 0.00 89 1013.9
20260503071525 44 97 6.0 10.0 0.00 0.00 0.00 90 1013.8
20260503054504 43 110 4.0 8.0 0.00 0.00 0.00 92 1013.8
20260503053004 43 107 7.0 10.0 0.00 0.00 0.00 92 1013.8
20260503051504 43 108 6.0 10.0 0.00 0.00 0.00 92 1013.7
20260503050005 43 101 4.0 8.0 0.00 0.00 0.00 92 1013.8
20260503044504 43 99 6.0 10.0 0.00 0.00 0.00 92 1013.8
20260503043004 43 98 7.0 11.0 0.00 0.00 0.00 92 1013.9
20260503041504 43 99 6.0 11.0 0.00 0.00 0.00 92 1013.8
20260503040004 43 97 5.0 9.0 0.00 0.00 0.00 92 1013.8
20260503034504 43 100 5.0 9.0 0.00 0.00 0.00 91 1013.9
20260503033004 43 96 5.0 8.0 0.00 0.00 0.00 91 1013.9
20260503031504 43 96 5.0 9.0 0.00 0.00 0.00 91 1014.0
20260503030025 43 93 5.0 8.0 0.00 0.00 0.00 91 1014.1
20260503024504 43 85 6.0 10.0 0.00 0.00 0.00 91 1014.1
20260503023004 43 79 4.0 8.0 0.00 0.00 0.00 91 1014.2
20260503021525 43 83 6.0 10.0 0.00 0.00 0.00 91 1014.3
20260503020025 43 82 8.0 13.0 0.00 0.00 0.00 92 1014.5
20260503014525 43 81 10.0 15.0 0.00 0.00 0.00 93 1014.6
20260503013004 44 80 9.0 14.0 0.00 0.00 0.00 93 1014.6
20260503011525 44 74 9.0 14.0 0.00 0.00 0.00 94 1014.7
20260503010004 44 65 10.0 14.0 0.00 0.00 0.00 94 1014.8
20260503004504 44 73 7.0 14.0 0.00 0.00 0.00 94 1014.6
20260503003004 44 71 8.0 13.0 0.00 0.00 0.00 95 1014.7
20260503001504 44 62 10.0 14.0 0.00 0.00 0.00 95 1014.8
20260503000004 44 69 9.0 16.0 0.00 0.00 0.00 95 1014.8
20260502234504 44 74 8.0 12.0 0.00 0.00 0.00 95 1014.9
20260502233004 44 72 9.0 14.0 0.00 0.00 0.00 95 1015.0
20260502231504 44 67 11.0 15.0 0.00 0.00 0.00 95 1014.8
20260502230004 44 66 8.0 14.0 0.00 0.00 0.00 96 1014.9
20260502224525 44 66 8.0 14.0 0.00 0.00 0.00 96 1014.9
20260502223004 44 60 10.0 16.0 0.00 0.00 0.00 96 1015.0
20260502221525 44 56 13.0 18.0 0.00 0.00 0.00 96 1015.0
20260502220004 45 64 11.0 15.0 0.00 0.00 0.00 96 1015.0
20260502214504 45 66 11.0 19.0 0.00 0.00 0.00 97 1015.1
20260502213004 45 61 10.0 16.0 0.00 0.00 0.00 97 1015.0
20260502211504 45 56 12.0 18.0 0.00 0.00 0.00 97 1015.1
20260502210004 45 47 13.0 18.0 0.00 0.00 0.00 97 1015.0
20260502204504 45 45 13.0 20.0 0.00 0.00 0.00 97 1015.2
20260502203004 45 48 13.0 18.0 0.00 0.00 0.00 96 1015.1
20260502201504 46 50 12.0 16.0 0.00 0.00 0.00 97 1015.0